Location: Peterborough
(44.3091°N, 78.3197°W)
Time: 00:46:56
(UTC-04:00)

Vanguard 1 Rocket - Pass Details

Date: 25 March 2023
Orbit: 655 x 4220 km, 34.3° (Epoch: 02 June)

Event Time Altitude Azimuth Distance (km) Brightness Sun altitude
Rises 23:44:16 0° 232° (SW) 8,433 12.3 -39.3°
Reaches altitude 10° 23:50:45 10° 227° (SW) 7,245 11.8 -39.9°
Enters shadow 00:02:15 31° 211° (SSW) 5,052 10.8 -40.9°
